Location: Newark
(13.6797°N, 8.5297°E)
Time: 05:52:53
(UTC+00:00)

A-11 Canister half - Pass Details

Date: 20 January 2020
Orbit: 1517 x 1683 km, 47.2° (Epoch: 19 February)

Event Time Altitude Azimuth Distance (km) Brightness Sun altitude
Rises 19:57:49 0° 186° (S) 4,845 11.8 -37.4°
Reaches altitude 10° 20:02:14 10° 170° (S) 3,829 11.1 -38.5°
Enters shadow 20:04:11 14° 159° (SSE) 3,481 10.8 -38.9°
Maximum altitude 20:08:36 19° 128° (SE) 3,099 - -40.0°
Drops below altitude 10° 20:14:49 10° 86° (E) 3,744 - -41.4°
Sets 20:19:00 0° 70° (ENE) 4,702 - -42.4°
